Location: Poughquag
(41.6090°N, 73.6820°W)
Time: 01:54:09
(UTC-04:00)

Vanguard 1 - Pass Details

Date: 06 June 2020
Orbit: 650 x 3833 km, 34.2° (Epoch: 06 July)

Event Time Altitude Azimuth Distance (km) Brightness Sun altitude
Exits shadow 05:29:57 -1° 242° (WSW) 5,303 13.1 0.6°
Rises 05:30:07 0° 242° (WSW) 5,263 13.1 0.6°
Reaches altitude 10° 05:33:00 10° 239° (WSW) 4,600 12.8 1.1°
Maximum altitude 05:46:53 62° 162° (SSE) 3,327 12.8 3.4°
Drops below altitude 10° 06:09:02 10° 89° (E) 6,929 15.9 7.1°
Sets 06:14:37 0° 87° (E) 7,964 16.2 8.0°
